Location: Indian Hills
(32.9760°N, 85.9450°W)
Time: 07:24:40
(UTC+00:00)

N. Korean satellite - Visible Passes

Search period start: 26 February 2021 00:00
Search period end: 08 March 2021 00:00
Orbit: 451 x 503 km, 97.2° (Epoch: 25 February)

Date Brightness Start Highest point End Pass type
(mag) Time Alt. Az. Time Alt. Az. Time Alt. Az.
26 Feb 7.2 10:52:37 10° NNE 10:56:05 56° E 10:59:34 10° S visible
27 Feb 9.1 10:26:29 10° NE 10:29:19 23° E 10:32:10 10° SSE visible
28 Feb 7.2 11:32:36 10° N 11:35:50 34° WNW 11:39:04 10° SW visible
01 Mar 6.5 11:05:37 10° N 11:09:10 89° W 11:12:45 10° SSW visible
02 Mar 8.2 10:39:09 10° NNE 10:42:26 35° E 10:45:44 10° SSE visible
03 Mar 9.7 10:13:26 10° ENE 10:15:35 15° E 10:17:45 10° SE visible
04 Mar 6.6 11:18:41 10° N 11:22:11 55° WNW 11:25:42 10° SSW visible
05 Mar 7.3 10:51:56 10° NNE 10:55:27 56° E 10:59:01 10° S visible
06 Mar 9.1 10:25:44 10° NE 10:28:39 23° E 10:31:33 10° SSE visible
07 Mar 7.2 11:31:49 10° N 11:35:07 35° WNW 11:38:26 10° SW visible
